Weather Roundup
Issued by NWS Chicago, IL

Home | Current Version | Previous Version | Text Only | Print | Product List | Glossary On
Versions: 1 2 3 4 5 6 7 8 9 10 11 12 13 14 15 16 17 18 19 20 21 22 23 24 25 26 27 28 29 30 31 32 33 34 35 36 37 38 39 40 41 42 43 44 45 46 47 48 49 50
000
NZUS59 KLOT 250310
HRRLOT

CHICAGO AREA WEATHER ROUNDUP
NATIONAL WEATHER SERVICE CHICAGO/ROMEOVILLE IL
1000 PM CDT FRI OCT 24 2014

NOTE: "FAIR" INDICATES FEW OR NO CLOUDS BELOW 12,000 FEET WITH NO
SIGNIFICANT WEATHER AND/OR OBSTRUCTIONS TO VISIBILITY.

* THESE STATIONS ARE NOT UNDER NWS QUALITY CONTROL. THEY ALSO MAY NOT
  REPORT WEATHER SUCH AS PRECIPITATION OR FOG.

ILZ005-006-012>014-019>023-250400-
NORTHEAST ILLINOIS

CITY           SKY/WX    TMP DP  RH WIND       PRES   REMARKS
OHARE          CLOUDY    61  46  57 W8        29.94S
MIDWAY         CLOUDY    62  47  57 SW8       29.94S
AURORA         CLOUDY    60  47  61 SW8       29.95S
LANSING*       MOCLDY    54  47  76 SW6       29.96S
JOLIET*        CLOUDY    59  49  70 SW6       29.96R
WAUKEGAN       CLOUDY    54  51  90 CALM      29.93S FOG
DUPAGE AIRPORT CLOUDY    59  49  69 SW6       29.94S
WHEELING       CLOUDY    62  46  55 SW7       29.96R
KANKAKEE*      CLOUDY    56  52  86 SW8       29.97F
MORRIS*        LGT RAIN  58  52  80 S5        29.95S
LEWIS AIRPORT* CLOUDY    58  48  69 SW7       29.96R
NORTHERLY IS     N/A     62  45  53 SW8         N/A
$$

WIZ051-052-058>065-066-070>072-250400-
SOUTHEAST WISCONSIN

CITY           SKY/WX    TMP DP  RH WIND       PRES   REMARKS
MILWAUKEE      CLOUDY    54  50  86 S6        29.92F FOG
KENOSHA*       CLOUDY    54  52  93 CALM      29.93S FOG
RACINE*        CLOUDY    55  51  86 CALM      29.94F FOG
BURLINGTON     CLOUDY    52  51  96 CALM      29.92S
WAUKESHA       CLOUDY    54  50  87 S5        29.92F
WEST BEND      CLOUDY    55  46  71 S3        29.90S
$$

INZ001>003-010>013-019-020-250400-
NORTHWEST INDIANA

CITY           SKY/WX    TMP DP  RH WIND       PRES   REMARKS
GARY*          MOCLDY    59  46  61 S3        29.95F
MICHIGAN CITY* NOT AVBL
RENSSELAER*    NOT AVBL
VALPARAISO     PTCLDY    54  45  71 S6        29.97F
$$

LMZ740>746-250400-
SOUTHERN LAKE MICHIGAN

STATION/POSITION TIME  SKY/WX   TEMP WIND        PRES    VSBY
                                AIR  DIR/SP/G
                 (UTC)          (F)  (DEG/KT/KT) (MB)    (MI)
HARRISON CRIB    0200            62  170/ 13/ 14   N/A
BURNHAM HARBOR   0300            63  220/  5/  9   N/A
CALUMET HARBOR   0300            60  210/  6/  8 1012.8F
BURNS HARBOR     NOT AVBL
MICHIGAN CITY    0300            58  130/ 12/ 13   N/A
$$

ABBREVIATIONS USED IN REMARKS
   TC - TEMPERATURE IN CELSIUS
  WCI - WIND CHILL INDEX
   HX - HEAT INDEX
  VSB - VISIBILITY
$$



USA.gov is the U.S. government's official web portal to all federal, state and local government web resources and services.